Flag for Germany Weather past 2 weeks in Ravensburg, Baden-Württemberg, Germany

Now
37 °F

Mostly cloudy.


Feels Like: 34 °F
Forecast: 31 / 37 °F
Wind: 5 mph from North

Location: Friedrichshafen Airport

Current Time: Jan 29, 2015 at 11:48:25 PM

Latest Report: Jan 29, 2015 at 11:20 PM


Visibility: N/A

Pressure: 28.88 "Hg

Humidity: 87%

Dew point: 34 °F

Location of RavensburgLocation

Historic Weather in Ravensburg — Graph

°F

Ravensburg temperature yesterday

Maximum temperature yesterday: 37 °F (at 2:50 PM)
Minimum temperature yesterday: 32 °F (at 1:20 AM)
Average temperature yesterday: 35 °F

Past Weeks' High & Low Weather Summary

 TemperatureHumidityPressure
High48 °F (Jan 15, 3:20 PM)93% (Jan 14, 10:56 PM)30.39 "Hg (Jan 14, 10:56 PM)
Low27 °F (Jan 26, 8:20 AM)50% (Jan 15, 3:20 PM)28.91 "Hg (Jan 29, 10:20 PM)
Average33 °F83%29.96 "Hg
* Reported Jan 14 10:20 PM — Jan 29 10:50 PM, Ravensburg, Weather by CustomWeather, © 2014

Note: Actual official high and low records may vary slightly from our data, if they occured in-between our weather recording intervals... More about our weather records

Advertising

Ravensburg weather history for previous 24 hours

 ConditionsComfort  
Time TempWeatherWind HumidityBarometerVisibility
10:50 PM
Jan 29
34 °FChilly.3 mph93%28.91 "Hg1 mi
10:20 PM34 °FChilly.2 mph93%28.91 "Hg6 mi
9:50 PM34 °FSprinkles. Fog.2 mph93%28.94 "Hg2 mi
9:20 PM34 °FDrizzle. Fog.2 mph87%28.97 "Hg2 mi
8:50 PM34 °FLight rain. Fog.3 mph87%29.00 "Hg2 mi
8:20 PM34 °FLight rain. Fog.1 mph87%29.03 "Hg3 mi
7:50 PM34 °FDrizzle. Fog.No wind87%29.06 "Hg3 mi
7:20 PM34 °FLight rain. Mostly cloudy.2 mph87%29.09 "Hg5 mi
6:50 PM34 °FMostly cloudy.3 mph87%29.09 "HgN/A
6:20 PM34 °FMostly cloudy.3 mph87%29.12 "HgN/A
5:50 PM36 °FMostly cloudy.3 mph87%29.15 "HgN/A
5:20 PM36 °FMostly cloudy.3 mph87%29.18 "HgN/A
4:50 PM36 °FLight rain. More clouds than sun.1 mph87%29.21 "HgN/A
4:20 PM36 °FOvercast.5 mph87%29.24 "HgN/A
3:50 PM37 °FLight rain. Mostly cloudy.13 mph75%29.27 "HgN/A
3:20 PM37 °FLight rain. Mostly cloudy.7 mph81%29.30 "HgN/A
2:50 PM36 °FSprinkles. Broken clouds.1 mph87%29.33 "HgN/A
2:20 PM36 °FBroken clouds.5 mph87%29.33 "HgN/A
1:50 PM36 °FLight rain. Mostly cloudy.6 mph87%29.36 "HgN/A
1:20 PM36 °FSprinkles. Partly sunny.5 mph87%29.39 "HgN/A
12:50 PM36 °FSprinkles. Cloudy.3 mph87%29.42 "HgN/A
12:20 PM34 °FLight rain. Mostly cloudy.6 mph87%29.45 "HgN/A
11:50 AM36 °FOvercast.7 mph75%29.47 "HgN/A
11:20 AM36 °FMostly cloudy.13 mph75%29.50 "HgN/A
10:50 AM36 °FSprinkles. Broken clouds.6 mph81%29.53 "HgN/A
10:20 AM34 °FPartly sunny.7 mph81%29.53 "HgN/A
9:50 AM36 °FOvercast.7 mph75%29.56 "HgN/A
9:20 AM34 °FBroken clouds.2 mph81%29.56 "HgN/A
8:20 AM34 °FMostly cloudy.13 mph81%29.59 "HgN/A
7:50 AM32 °FOvercast.5 mph93%29.59 "HgN/A
7:20 AM32 °FSnow. Mostly cloudy.3 mph93%29.59 "Hg1 mi
6:50 AM32 °FLight snow. Mostly cloudy.6 mph93%29.59 "Hg1 mi
6:20 AM32 °FSnow. Mostly cloudy.3 mph93%29.59 "Hg1 mi
5:50 AM32 °FLight snow. Overcast.3 mph93%29.59 "Hg1 mi
5:20 AM32 °FChilly.2 mph93%29.59 "Hg1 mi
5:03 AM32 °FChilly.1 mph93%29.59 "Hg1 mi
4:50 AM34 °FLight rain. Overcast.1 mph87%29.59 "Hg3 mi
4:20 AM34 °FLight rain. Mostly cloudy.7 mph87%29.59 "HgN/A
4:03 AM36 °FLight rain. Mostly cloudy.8 mph81%29.59 "HgN/A
3:50 AM36 °FLight rain. Mostly cloudy.7 mph87%29.59 "HgN/A
3:20 AM37 °FLight rain. Overcast.13 mph81%29.59 "HgN/A
2:56 AM37 °FLight rain. Overcast.12 mph81%29.59 "HgN/A
2:50 AM37 °FLight rain. Overcast.13 mph81%29.59 "HgN/A
2:20 AM37 °FLight rain. Overcast.16 mph81%29.59 "HgN/A
1:50 AM36 °FSprinkles. Mostly cloudy.14 mph81%29.59 "HgN/A
1:20 AM36 °FSprinkles. Overcast.8 mph81%29.59 "HgN/A
12:50 AM36 °FSprinkles. Overcast.6 mph81%29.62 "HgN/A
12:20 AM36 °FSprinkles. Mostly cloudy.6 mph75%29.62 "HgN/A
11:55 PM
Jan 28
36 °FSprinkles. Mostly cloudy.10 mph75%29.62 "HgN/A
11:20 PM36 °FMostly cloudy.13 mph70%29.65 "HgN/A
Weather by CustomWeather, © 2014

See weather overviewHow to use our weather pages